Regional Weather Roundup
Issued by NWS Bismarck, ND

Home | Current Version | Previous Version | Text Only | Print | Product List | Glossary On
Versions: 1 2 3 4 5 6 7 8 9 10 11 12 13 14 15 16 17 18 19 20 21 22 23 24 25 26 27 28 29 30 31 32 33 34 35 36 37 38 39 40 41 42 43 44 45 46 47 48 49 50
000
ASUS43 KBIS 192120
RWRBIS

NWR BROADCAST TEXT
NATIONAL WEATHER SERVICE BISMARCK ND
400 PM CDT SAT APR 19 2014

NOTE: "FAIR" INDICATES FEW OR NO CLOUDS BELOW 12,000 FEET WITH NO
SIGNIFICANT WEATHER AND/OR OBSTRUCTIONS TO VISIBILITY.


CITY           SKY/WX    TMP DP  RH WIND       PRES   REMARKS
WILLISTON      MOSUNNY   57  34  41 W16G22    29.92F
MINOT          CLOUDY    52  33  48 W21       29.91R
MINOT AFB      CLOUDY    50  35  57 NW20      29.91R
BISMARCK       SUNNY     66  32  28 W21G30    29.93R
DICKINSON      MOSUNNY   61  31  32 W20G25    29.94R
GARRISON         N/A     54  35  48 W23       29.94R
HETTINGER ARPT SUNNY     62  28  27 W17G35    29.97S
JAMESTOWN      SUNNY     66  32  28 W16       29.89R
CARRINGTON     FAIR      57  39  51 NW24G33   29.91R
CROSBY         MOCLDY    48  36  61 W13G23    29.93S
HARVEY         MOCLDY    50  37  62 W20G31    29.92S
HAZEN          FAIR      57  34  41 NW16G22   29.95S
LINTON         FAIR      66  28  24 NW15      29.93S
MANDAN         FAIR      63  34  34 W23G31    29.93R
OAKES          FAIR      66  30  26 W15G23    29.93S
RUGBY          MOCLDY    48  36  61 W24G31    29.90R
STANLEY        CLOUDY    52  34  50 W18G28    29.93R
TIOGA          CLOUDY    50  32  50 W21G28    29.95S
WATFORD CITY   FAIR      57  32  38 W13G22    29.91F
$$

CITY           SKY/WX    TMP DP  RH WIND       PRES   REMARKS
GRAND FORKS    MOSUNNY   62  39  42 W20G30    29.85R
GRAND FORKS AF SUNNY     62  38  40 W21G30    29.87R
DEVILS LAKE    CLOUDY    52  37  58 W23G31    29.89R
FARGO          MOSUNNY   69  31  24 W18       29.90R
CANDO          FAIR      50  36  57 W25G32    29.89R
CAVALIER       MOCLDY    55  37  50 W25G36    29.83R
GRAFTON        MOCLDY    55  39  54 W28G35    29.85R
GWINNER        CLEAR     68  32  26 W17G24    29.94S
LANGDON        FAIR      54  36  50 W30G41    29.84R
ROLLA          MOCLDY    46  36  66 W22G33    29.86R
WALHALLA         N/A     54  37  54 W23G31    29.82R
$$

CITY           SKY/WX    TMP DP  RH WIND       PRES   REMARKS
ABERDEEN       MOSUNNY   69  24  18 W16G23    29.95F
MOBRIDGE       SUNNY     68  26  20 W13       29.93S
BUFFALO          N/A     63  21  20 W16G28    29.92F
RAPID CITY     MOSUNNY   64  33  31 SE12G21   30.01F
GLASGOW        MOSUNNY   59  33  37 W15       29.91F
SIDNEY         SUNNY     59  34  38 W13G18    29.94S
WOLF POINT     MOSUNNY   60  34  37 W18       29.92F
GLENDIVE       MOSUNNY   63  28  27 W17G23    29.94F
MILES CITY     SUNNY     61  24  24 VRB6G17   29.95F
BAKER          MOSUNNY   60  27  28 W15G22    29.97F
$$

CITY           SKY/WX    TMP DP  RH WIND       PRES   REMARKS
BILLINGS       MOSUNNY   62  17  17 VRB6      29.93F
GREAT FALLS    SUNNY     62  14  15 SW18      29.86F
REGINA         CLOUDY    39  32  75 NW20      29.89R
ESTEVAN        PTSUNNY   46  36  66 W17G23    29.91R
$$




USA.gov is the U.S. government's official web portal to all federal, state and local government web resources and services.